sat.trackr.live / text

‹ back to catalog

STARLINK-32428

NORAD 61666 · 2024-193F

PAYLOAD ACTIVE UNKNOWN

§ Identity

Operator
Country
US
Launch date
2024-10-26
Launch site
AFETR
Launch vehicle
Mass (kg)
RCS (m²)

Purposes: comms

External: N2YO · Heavens-Above · Gunter

§ Orbital elements

Epoch: 2026-09-21T16:48:52.481088Z

Period
94.01 min
Inclination
53.1602°
Eccentricity
0.0001380
Mean motion
15.31698879 rev/d
Perigee alt
469.8 km
Apogee alt
471.7 km
Semi-major
6,848.9 km
B*
3.1549e-6
RAAN
259.3619°
Arg perigee
86.9522°
Mean anomaly
273.1638°
Rev number
10,655

§ Raw data

STARLINK-324281 61666U 24193F   26264.70060742 -.00000267  00000+0  31549-5 0  99922 61666  53.1602 259.3619 0001380  86.9522 273.1638 15.31698879106557

JSON: /api/v1/satellites/61666 · /tle

For live sub-satellite position, see the globe view (requires WebGL).

§ Visibility from observer

Set your observer location to see the next 7 days of passes ≥ 10°. The values pass through the URL so the page stays shareable.

No JS? Fill the form by hand. The geolocation button needs JavaScript.